Regional Weather Roundup
Issued by NWS Jackson, KY

Home | Current Version | Previous Version | Text Only | Print | Product List | Glossary Off
Versions: 1 2 3 4 5 6 7 8 9 10 11 12 13 14 15 16 17 18 19 20 21 22 23 24 25 26 27 28 29 30 31 32 33 34 35 36 37 38 39 40 41 42 43 44 45 46 47 48 49 50

000
ASUS43 KJKL 050510
RWRJKL

EAST KENTUCKY HOURLY WEATHER ROUNDUP
NATIONAL WEATHER SERVICE JACKSON KY
1200 AM EST THU MAR 05 2015

NOTE: "FAIR" INDICATES FEW OR NO CLOUDS BELOW 12,000 FEET WITH
NO SIGNIFICANT WEATHER AND/OR OBSTRUCTIONS TO VISIBILITY.

* THESE REPORTS ARE NOT UNDER NWS QUALITY CONTROL AND MAY NOT
  REPORT WEATHER SUCH AS PRECIPITATION AND FOG.

KYZ079-080-083-085-087-088-110-112-115-119-120-050600
...EASTERN KENTUCKY...

CITY           SKY/WX    TMP DP  RH WIND       PRES   REMARKS
JACKSON        LGT RAIN  33  31  92 VRB5      30.08R FOG     WCI  29
LONDON         LGT RAIN  35  31  85 N10       30.09S FOG     WCI  27
SOMERSET*      MIX PCPN  32  32 100 N12G17    30.13S WCI  23
MONTICELLO*    LGT SNOW  34  33  96 N13       30.14R FOG     WCI  25
MIDDLESBORO*   LGT RAIN  38  36  91 N3        30.05R
BLACK MTN*       N/A     30  32 100 N3          N/A
PIKEVILLE APT* MIX PCPN  32  32 100 N9        30.05F WCI  24
BIG SANDY*     LGT RAIN  33  32  98 N7        30.08S WCI  26
MOREHEAD APT*  LGT SNOW  30  28  93 NW7G14    30.15R VSB 3/4 WCI  23
$$

KYZ035-036-041-042-044-050-067-078-099-050600
...CENTRAL KENTUCKY...

CITY           SKY/WX    TMP DP  RH WIND       PRES   REMARKS
MT STERLING*   LGT SNOW  30  30 100 N10G20    30.15R VSB 3/4 WCI  21
FLEMING/MASON* HVY SNOW  27  27 100 N7        30.17S VSB 1/4 WCI  19
DANVILLE*      LGT SNOW  28  28 100 N13       30.17R WCI  18
RICHMOND*      CLOUDY    28  27  93 N10       30.13R WCI  19
LEXINGTON      FOG       25  23  92 N16       30.16S VSB 3/4 WCI  12
FRANKFORT      LGT SNOW  24  21  88 N9        30.17R VSB 3/4 WCI  14
$$

KYZ091>093-OHZ055-061-077-WVZ005-015-034-035-042-050600
...SOUTHERN OHIO/WEST VIRGINIA...

CITY           SKY/WX    TMP DP  RH WIND       PRES   REMARKS
COVINGTON      LGT SNOW  22  15  75 N15G22    30.22R VSB 1   WCI   9
COLUMBUS       CLOUDY    23  13  65 N16G26    30.19R WCI  10
DAYTON         CLOUDY    21   8  57 N17       30.22S WCI   7
WILMINGTON     CLOUDY    23  15  71 N13       30.19R WCI  11
HUNTINGTON     LGT SNOW  30  30 100 N7        30.11F VSB 1   WCI  23
CHARLESTON     LGT SNOW  32  31  96 NW3       30.08F FOG
PINEVILLE*     MIX PCPN  38  38 100 MISG      30.05F
BECKLEY        LGT RAIN  34  34 100 N9        29.99S WCI  27
BLUEFIELD      LGT RAIN  39  35  86 VRB6      29.97R FOG     WCI  35
$$

VAZ002-007-008-TNZ017-027-036-066-071-050600
...SOUTHWEST VIRGINIA/EAST TENNESSEE...

CITY           SKY/WX    TMP DP  RH WIND       PRES   REMARKS
WISE*          DRIZZLE   34  34 100 N5        30.00S WCI  30
JONESVILLE*    LGT RAIN  37  37 100 CALM      30.02R
ABINGDON*      RAIN      44  42  92 CALM      29.95R
BRISTOL        LGT RAIN  43  41  93 N9        29.97R
KNOXVILLE      LGT RAIN  41  40  96 N9        30.00F
OAK RIDGE      LGT RAIN  42  39  89 VRB6      30.02R
CROSSVILLE     LGT RAIN  35  32  88 NE15      30.01S WCI  25
NASHVILLE      FRZ DRZL  30  28  92 N14G21    30.15R FOG     WCI  19
$$

...KEY TO REMARKS...
VSB - VISIBILITY IN MILES
WCI - WIND CHILL INDEX
HX  - HEAT INDEX

$$


USA.gov is the U.S. government's official web portal to all federal, state and local government web resources and services.